Weather History for 62405 - August, 2013

Change the Weather History Date:

Friday, August 9, 2013

  Actual Average Record
Temperature  
Mean Temperature 94 °F -  
Max Temperature 107 °F 102 °F - ()
Min Temperature 81 °F 75 °F - ()
Cooling Degree Days 29    
Growing Degree Days 44 (Base 50)    
Moisture  
Dew Point 60 °F    
Average Humidity 31    
Maximum Humidity 53    
Minimum Humidity 15    
Precipitation  
Precipitation 0.00 in 0.00 in - ()
Sea Level Pressure  
Sea Level Pressure 29.69 in    
Wind  
Wind Speed 4 mph ()    
Max Wind Speed 14 mph    
Max Gust Speed -    
Visibility 6.0 miles    
Events      
T = Trace of Precipitation, MM = Missing Value Source: Averaged Metar Reports

Daily Weather History Graph

Daily Weather History Graph

Search for Another Location

Airport or City:

Trip Planner

Search our weather history database for the weather conditions in past years. The results will help you decide how hot, cold, wet, or windy it might be!

Date:

Astronomy

Aug. 09, 2013 Rise Set
Actual Time 5:19 AM EET 6:29 PM EET
Civil Twilight 4:55 AM EET 6:53 PM EET
Nautical Twilight 4:26 AM EET 7:22 PM EET
Astronomical Twilight 3:56 AM EET 7:52 PM EET
Moon 7:24 AM EET (8/9) 7:52 PM EET (8/9)
Length of Visible Light 13h 58m
Length of Day
13h 09m
Waxing Crescent, 6% of the Moon is Illuminated
Aug 9
Waxing Crescent
Aug 14
First Quarter
Aug 21
Full
Aug 28
Last Quarter
Sep 5
New

Hourly Weather History & Observations

Time (EET) Temp. Heat Index Dew Point Humidity Pressure Visibility Wind Dir Wind Speed Gust Speed Precip Events Conditions
12:00 AM 93.2 °F 92.6 °F 59.0 °F 32% 29.71 in - Calm Calm - N/A   Clear
1:00 AM 89.6 °F 87.7 °F 55.4 °F 31% 29.71 in - SSE 2.3 mph - N/A   Clear
2:00 AM 88 °F - 55 °F 23% 29.71 in 6 mi SSE 2.3 mph - -  
2:00 AM 87.8 °F 86.1 °F 55.4 °F 33% 29.71 in - SSE 2.3 mph - N/A   Clear
3:00 AM 84.2 °F 83.0 °F 55.4 °F 37% 29.71 in - Calm Calm - N/A   Clear
4:00 AM 84.2 °F 83.5 °F 57.2 °F 40% 29.71 in - East 2.3 mph - N/A   Clear
5:00 AM 82.4 °F 82.0 °F 57.2 °F 42% 29.71 in - SSE 2.3 mph - N/A   Clear
6:00 AM 82.4 °F 81.7 °F 55.4 °F 39% 29.74 in - Calm Calm - N/A   Clear
7:00 AM 86.0 °F 86.1 °F 60.8 °F 43% 29.74 in - Calm Calm - N/A   Clear
8:00 AM 74 °F - 60 °F 53% 29.73 in 6 mi Calm Calm - -  
8:00 AM 91.4 °F 91.4 °F 60.8 °F 36% 29.74 in - Calm Calm - N/A   Clear
9:00 AM 95.0 °F 94.4 °F 59.0 °F 30% 29.74 in - Calm Calm - N/A   Clear
10:00 AM 98.6 °F 100.0 °F 62.6 °F 30% 29.74 in - North 5.8 mph - N/A   Clear
11:00 AM 102.2 °F 104.2 °F 62.6 °F 27% 29.71 in - NW 9.2 mph - N/A   Clear
12:00 PM 104.0 °F 106.6 °F 62.6 °F 26% 29.71 in - NW 13.8 mph - N/A   Clear
12:01 PM 104.0 °F 106.6 °F 62.6 °F 26% 29.71 in - NW 13.8 mph - N/A   Clear
1:00 PM 105.8 °F 107.5 °F 60.8 °F 23% 29.71 in - NW 9.2 mph - N/A   Clear
2:00 PM 107 °F - 62 °F 15% 29.65 in 6 mi NW 11.5 mph - -  
2:00 PM 105.8 °F 108.3 °F 62.6 °F 24% 29.65 in - NW 11.5 mph - N/A   Clear
3:00 PM 105.8 °F 108.3 °F 62.6 °F 24% 29.65 in - NW 10.4 mph - N/A   Clear
4:00 PM 105.8 °F 107.5 °F 60.8 °F 23% 29.65 in - NW 13.8 mph - N/A   Clear
5:00 PM 104.0 °F 106.6 °F 62.6 °F 26% 29.62 in - WNW 11.5 mph - N/A   Clear
6:00 PM 100.4 °F 102.4 °F 62.6 °F 29% 29.65 in - NW 9.2 mph - N/A   Clear
7:00 PM 96.8 °F 97.1 °F 60.8 °F 30% 29.65 in - WNW 9.2 mph - N/A   Clear
8:00 PM 95.0 °F 95.2 °F 60.8 °F 32% 29.65 in - WNW 5.8 mph - N/A   Clear
9:00 PM 93.2 °F 92.6 °F 59.0 °F 32% 29.65 in - NNW 3.5 mph - N/A   Clear
10:00 PM 89.6 °F 88.1 °F 57.2 °F 33% 29.68 in - Calm Calm - N/A   Clear
11:00 PM 89.6 °F 88.1 °F 57.2 °F 33% 29.65 in - West 3.5 mph - N/A   Clear